Location: Peebles
(55.6412°N, 3.1714°W)
Time: 15:50:05
(UTC+01:00)

deb Agena D - Pass Details

Date: 20 September 2024
Orbit: 793 x 976 km, 99.8° (Epoch: 03 October)

Event Time Altitude Azimuth Distance (km) Brightness Sun altitude
Rises 03:58:57 0° 17° (NNE) 3,439 10.3 -23.4°
Reaches altitude 10° 04:01:17 10° 16° (NNE) 2,524 9.4 -23.2°
Maximum altitude 04:06:54 75° 292° (WNW) 933 6.2 -22.6°
Enters shadow 04:08:38 47° 219° (SW) 1,194 6.5 -22.4°
